Tracking 19242 objects as of 15-Aug-2018
HD Live streaming from Space Station
objects crossing your sky now

OPS 6026 (DMSP 4A F1)

Track OPS 6026 (DMSP 4A F1) now!
10-day predictions
OPS 6026 (DMSP 4A F1) is classified as:


NORAD ID: 2418
Int'l Code: 1966-082A
Perigee: 674.3 km
Apogee: 845.9 km
Inclination: 98.2 °
Period: 99.9 minutes
Semi major axis: 7131 km
RCS: 0.634 m2 (medium)
Launch date: September 16, 1966
Source: United States (US)
Launch site: AIR FORCE WESTERN TEST RANGE (AFWTR)
aabbcc
Your satellite tracking list
Your tracking list is empty




NASA's NSSDC Master Catalog

Two Line Element Set (TLE):
1 02418U 66082A   18227.15387714 -.00000017  00000-0  79766-5 0  9992
2 02418  98.2477  79.7189 0120327  59.3612 301.9377 14.41689225720298
Source of the keplerian elements: AFSPC